TimeCST,TemperatureF,Dew PointF,Humidity,Sea Level PressureIn,VisibilityMPH,Wind Direction,Wind SpeedMPH,Gust SpeedMPH,PrecipitationIn,Events,Conditions,WindDirDegrees,DateUTC
12:15 AM,-2.2,-18.4,46,30.23,10.0,West,4.6,-,N/A,,Partly Cloudy,260,2013-01-23 06:15:00
12:35 AM,-2.2,-16.6,50,30.22,10.0,West,3.5,-,N/A,,Clear,270,2013-01-23 06:35:00
12:55 AM,-2.2,-18.4,46,30.22,10.0,West,5.8,-,N/A,,Clear,280,2013-01-23 06:55:00
1:15 AM,-2.2,-18.4,46,30.22,10.0,West,4.6,-,N/A,,Partly Cloudy,260,2013-01-23 07:15:00
1:35 AM,-2.2,-16.6,50,30.21,10.0,West,4.6,-,N/A,,Partly Cloudy,270,2013-01-23 07:35:00
1:55 AM,-4.0,-18.4,50,30.22,10.0,West,4.6,-,N/A,,Clear,260,2013-01-23 07:55:00
2:15 AM,-4.0,-14.8,60,30.22,10.0,West,3.5,-,N/A,,Clear,270,2013-01-23 08:15:00
2:35 AM,-4.0,-20.2,46,30.21,10.0,West,5.8,-,N/A,,Clear,260,2013-01-23 08:35:00
2:55 AM,-4.0,-14.8,60,30.20,10.0,West,4.6,-,N/A,,Clear,270,2013-01-23 08:55:00
3:15 AM,-4.0,-20.2,46,30.20,10.0,West,5.8,-,N/A,,Partly Cloudy,260,2013-01-23 09:15:00
3:35 AM,-4.0,-14.8,60,30.19,10.0,West,5.8,-,N/A,,Clear,270,2013-01-23 09:35:00
3:55 AM,-4.0,-22.0,42,30.19,10.0,West,8.1,-,N/A,,Clear,280,2013-01-23 09:55:00
4:15 AM,-4.0,-14.8,60,30.19,10.0,WNW,6.9,-,N/A,,Clear,290,2013-01-23 10:15:00
4:35 AM,-4.0,-20.2,46,30.19,10.0,WNW,6.9,-,N/A,,Clear,290,2013-01-23 10:35:00
4:55 AM,-4.0,-18.4,50,30.18,10.0,West,4.6,-,N/A,,Mostly Cloudy,270,2013-01-23 10:55:00
5:15 AM,-4.0,-9999,N/A,30.17,10.0,West,8.1,-,N/A,,Overcast,280,2013-01-23 11:15:00
5:35 AM,-4.0,-9999,N/A,30.17,10.0,West,5.8,-,N/A,,Overcast,280,2013-01-23 11:35:00
5:55 AM,-4.0,-27.4,32,30.17,10.0,West,4.6,-,N/A,,Mostly Cloudy,280,2013-01-23 11:55:00
6:15 AM,-4.0,-23.8,38,30.17,10.0,West,4.6,-,N/A,,Mostly Cloudy,280,2013-01-23 12:15:00
6:35 AM,-4.0,-25.6,35,30.17,10.0,West,4.6,-,N/A,,Overcast,280,2013-01-23 12:35:00
6:55 AM,-2.2,-27.4,29,30.15,10.0,West,5.8,-,N/A,,Overcast,260,2013-01-23 12:55:00
7:15 AM,-2.2,-25.6,32,30.14,10.0,West,4.6,-,N/A,,Overcast,260,2013-01-23 13:15:00
7:35 AM,-2.2,-23.8,35,30.14,10.0,West,4.6,-,N/A,,Overcast,260,2013-01-23 13:35:00
7:55 AM,-2.2,-22.0,39,30.14,10.0,WSW,5.8,-,N/A,,Overcast,250,2013-01-23 13:55:00
8:15 AM,-2.2,-20.2,42,30.13,10.0,West,4.6,-,N/A,,Overcast,260,2013-01-23 14:15:00
8:35 AM,-0.4,-20.2,39,30.13,10.0,WSW,4.6,-,N/A,,Overcast,250,2013-01-23 14:35:00
8:55 AM,-0.4,-18.4,43,30.13,10.0,West,5.8,-,N/A,,Overcast,260,2013-01-23 14:55:00
9:15 AM,1.4,-16.6,43,30.13,10.0,West,5.8,-,N/A,,Overcast,260,2013-01-23 15:15:00
9:35 AM,1.4,-16.6,43,30.13,10.0,WSW,9.2,-,N/A,,Overcast,250,2013-01-23 15:35:00
9:55 AM,1.4,-16.6,43,30.13,10.0,West,9.2,-,N/A,,Overcast,270,2013-01-23 15:55:00
10:15 AM,1.4,-16.6,43,30.13,10.0,West,10.4,-,N/A,,Overcast,270,2013-01-23 16:15:00
10:35 AM,3.2,-14.8,43,30.13,10.0,West,10.4,-,N/A,,Overcast,270,2013-01-23 16:35:00
10:55 AM,3.2,-14.8,43,30.12,10.0,West,9.2,-,N/A,,Overcast,280,2013-01-23 16:55:00
11:15 AM,5.0,-14.8,40,30.11,10.0,West,8.1,-,N/A,,Overcast,280,2013-01-23 17:15:00
11:35 AM,5.0,-11.2,47,30.10,7.0,WNW,8.1,-,N/A,,Overcast,290,2013-01-23 17:35:00
11:55 AM,6.8,-9.4,48,30.09,3.0,West,8.1,-,N/A,,Overcast,270,2013-01-23 17:55:00
12:15 PM,6.8,-11.2,44,30.08,3.0,WNW,8.1,-,N/A,,Overcast,300,2013-01-23 18:15:00
12:35 PM,6.8,-2.2,67,30.07,4.0,WNW,4.6,-,N/A,,Overcast,300,2013-01-23 18:35:00
12:55 PM,8.6,-13.0,37,30.06,8.0,WNW,8.1,-,N/A,,Overcast,290,2013-01-23 18:55:00
1:15 PM,8.6,-11.2,40,30.05,5.0,West,8.1,-,N/A,,Overcast,280,2013-01-23 19:15:00
1:35 PM,8.6,-9.4,44,30.04,5.0,WNW,9.2,-,N/A,,Overcast,290,2013-01-23 19:35:00
1:55 PM,10.4,-7.6,44,30.05,5.0,WNW,6.9,-,N/A,,Overcast,290,2013-01-23 19:55:00
2:15 PM,10.4,-7.6,44,30.04,9.0,West,9.2,-,N/A,,Overcast,280,2013-01-23 20:15:00
2:35 PM,10.4,-5.8,48,30.05,9.0,West,6.9,-,N/A,,Overcast,270,2013-01-23 20:35:00
2:55 PM,10.4,-4.0,52,30.05,5.0,West,5.8,-,N/A,,Mostly Cloudy,260,2013-01-23 20:55:00
3:15 PM,10.4,-4.0,52,30.06,4.0,West,6.9,-,N/A,,Overcast,280,2013-01-23 21:15:00
3:35 PM,10.4,-0.4,62,30.06,3.0,WNW,5.8,-,N/A,,Overcast,290,2013-01-23 21:35:00
3:55 PM,10.4,3.2,73,30.07,2.0,NW,6.9,-,N/A,,Overcast,310,2013-01-23 21:55:00
4:15 PM,10.4,3.2,73,30.08,3.0,NW,6.9,-,N/A,,Mostly Cloudy,310,2013-01-23 22:15:00
4:35 PM,10.4,3.2,73,30.09,4.0,NNW,9.2,-,N/A,,Mostly Cloudy,330,2013-01-23 22:35:00
4:55 PM,10.4,3.2,73,30.10,3.0,NNW,9.2,-,N/A,,Mostly Cloudy,330,2013-01-23 22:55:00
5:15 PM,10.4,3.2,73,30.11,9.0,NNW,6.9,-,N/A,,Overcast,330,2013-01-23 23:15:00
5:35 PM,10.4,1.4,67,30.13,10.0,NNW,5.8,-,N/A,,Overcast,330,2013-01-23 23:35:00
5:55 PM,10.4,-2.2,57,30.14,10.0,NNW,6.9,-,N/A,,Overcast,330,2013-01-23 23:55:00
6:15 PM,10.4,-5.8,48,30.15,10.0,NNW,11.5,-,N/A,,Scattered Clouds,340,2013-01-24 00:15:00
6:35 PM,8.6,-5.8,52,30.16,10.0,NW,6.9,-,N/A,,Clear,320,2013-01-24 00:35:00
6:55 PM,8.6,-5.8,52,30.17,10.0,NW,6.9,-,N/A,,Scattered Clouds,320,2013-01-24 00:55:00
7:15 PM,8.6,-5.8,52,30.18,10.0,NNW,9.2,16.1,N/A,,Mostly Cloudy,330,2013-01-24 01:15:00
7:35 PM,8.6,-4.0,57,30.20,10.0,NNW,12.7,16.1,N/A,,Clear,330,2013-01-24 01:35:00
7:55 PM,8.6,-5.8,52,30.22,10.0,NNW,13.8,20.7,N/A,,Clear,340,2013-01-24 01:55:00
8:15 PM,8.6,-5.8,52,30.24,10.0,NNW,12.7,17.3,N/A,,Clear,340,2013-01-24 02:15:00
8:35 PM,6.8,-7.6,52,30.25,10.0,NNW,13.8,17.3,N/A,,Clear,340,2013-01-24 02:35:00
8:55 PM,6.8,-7.6,52,30.26,10.0,NNW,15.0,19.6,N/A,,Clear,340,2013-01-24 02:55:00
9:15 PM,6.8,-9.4,48,30.28,10.0,NNW,15.0,19.6,N/A,,Clear,340,2013-01-24 03:15:00
9:35 PM,6.8,-9.4,48,30.29,10.0,NNW,12.7,24.2,N/A,,Clear,340,2013-01-24 03:35:00
9:55 PM,6.8,-9.4,48,30.30,10.0,NNW,16.1,23.0,N/A,,Clear,340,2013-01-24 03:55:00
10:15 PM,5.0,-11.2,47,30.30,10.0,NNW,16.1,24.2,N/A,,Clear,340,2013-01-24 04:15:00
10:35 PM,5.0,-9.4,52,30.31,10.0,NNW,12.7,21.9,N/A,,Clear,340,2013-01-24 04:35:00
10:55 PM,5.0,-9.4,52,30.33,10.0,NNW,12.7,21.9,N/A,,Clear,340,2013-01-24 04:55:00
11:15 PM,5.0,-11.2,47,30.34,10.0,NNW,13.8,24.2,N/A,,Clear,340,2013-01-24 05:15:00
11:35 PM,3.2,-9.4,56,30.36,10.0,NNW,15.0,24.2,N/A,,Clear,340,2013-01-24 05:35:00
11:55 PM,3.2,-9.4,56,30.37,10.0,NNW,12.7,20.7,N/A,,Clear,340,2013-01-24 05:55:00